Location: *
(52.2090°N, 4.1550°W)
Time: 19:32:31
(UTC+00:00)

Cosmos 1844 Rocket - Pass Details

Date: 19 July 2019
Orbit: 823 x 846 km, 71.0° (Epoch: 16 August)

Event Time Altitude Azimuth Distance (km) Brightness Sun altitude
Rises 21:29:23 0° 328° (NNW) 3,416 8.1 -7.8°
Reaches altitude 10° 21:31:50 10° 328° (NNW) 2,479 6.8 -8.1°
Maximum altitude 21:37:33 86° 240° (WSW) 856 2.8 -8.6°
Enters shadow 21:43:04 11° 154° (SSE) 2,403 4.4 -9.1°
